Location: *
(1.3500°S, 147.5000°W)
Time: 13:49:50
(UTC+00:00)

ASTRO E2 - Pass Details

Date: 07 April 2020
Orbit: 510 x 516 km, 31.4° (Epoch: 04 June)

Event Time Altitude Azimuth Distance (km) Brightness Sun altitude
Rises 04:13:55 0° 231° (SW) 2,616 7.0 -5.6°
Reaches altitude 10° 04:16:10 10° 228° (SW) 1,729 6.0 -6.1°
Maximum altitude 04:20:07 62° 147° (SSE) 578 2.8 -7.1°
Drops below altitude 10° 04:24:03 10° 66° (ENE) 1,726 4.8 -8.1°
Enters shadow 04:24:46 - 64° (ENE) 2,007 5.2 -8.3°
